N903LE KTEB-KBNA

Flight info

Callsign N903LE
Flight time N/A
Altitude 8000
Route SBJ T430 ETX V39 MRB V166 ESL V4 HVQ LOZ V140 HARME
Aircraft AEST/L-SDFGRY/S

Departure

Time 2026-05-08 02:47
Airport Teterboro Airport (KTEB)

Arrival

Time N/A
Airport Nashville International Airport (KBNA)
Time Latitude Longitude Altitude Speed Heading
2026-05-08 02:23 40.84278 -74.06365 14 ft 0 kts
2026-05-08 02:33 40.84279 -74.06365 13 ft 0 kts
2026-05-08 02:34 40.84292 -74.06365 13 ft 0 kts 341°
2026-05-08 02:34 40.84300 -74.06376 13 ft 6 kts 272°
2026-05-08 02:34 40.84269 -74.06393 13 ft 6 kts 164°
2026-05-08 02:34 40.84245 -74.06323 13 ft 8 kts 97°
2026-05-08 02:35 40.84243 -74.06265 14 ft 5 kts 92°
2026-05-08 02:35 40.84241 -74.06226 10 ft 5 kts 90°
2026-05-08 02:35 40.84239 -74.06181 10 ft 5 kts 102°
2026-05-08 02:35 40.84212 -74.06157 10 ft 6 kts 181°
2026-05-08 02:36 40.84139 -74.06162 10 ft 15 kts 184°
2026-05-08 02:36 40.84053 -74.06168 10 ft 5 kts 170°
2026-05-08 02:36 40.84034 -74.06132 10 ft 0 kts 91°
2026-05-08 02:36 40.84034 -74.06129 10 ft 4 kts 85°
2026-05-08 02:37 40.84034 -74.06126 10 ft 0 kts 93°
2026-05-08 02:45 40.84034 -74.06125 10 ft 2 kts 94°
2026-05-08 02:46 40.84031 -74.06069 10 ft 9 kts 94°
2026-05-08 02:46 40.84035 -74.06040 10 ft 5 kts 59°
2026-05-08 02:46 40.84192 -74.06014 10 ft 58 kts
2026-05-08 02:46 40.84788 -74.05973 21 ft 104 kts
2026-05-08 02:47 40.85517 -74.05894 310 ft 104 kts
2026-05-08 02:47 40.86281 -74.05861 655 ft 114 kts 359°
2026-05-08 02:47 40.87112 -74.06050 820 ft 139 kts 329°
2026-05-08 02:47 40.87748 -74.07106 956 ft 159 kts 290°
2026-05-08 02:48 40.87780 -74.08629 1131 ft 177 kts 255°
2026-05-08 02:48 40.87098 -74.10025 1289 ft 190 kts 223°
2026-05-08 02:48 40.85917 -74.10865 1460 ft 197 kts 202°
2026-05-08 02:48 40.84621 -74.11495 1647 ft 200 kts 203°
2026-05-08 02:49 40.83391 -74.12328 1847 ft 199 kts 214°
2026-05-08 02:49 40.82329 -74.13454 2062 ft 198 kts 227°
2026-05-08 02:49 40.81547 -74.14891 2403 ft 189 kts 243°
2026-05-08 02:49 40.80956 -74.16422 2678 ft 187 kts 246°
2026-05-08 02:50 40.80390 -74.17956 2918 ft 185 kts 245°
2026-05-08 02:50 40.79810 -74.19464 3163 ft 184 kts 245°
2026-05-08 02:50 40.79227 -74.20955 3402 ft 182 kts 245°
2026-05-08 02:50 40.78655 -74.22439 3630 ft 181 kts 245°
2026-05-08 02:51 40.78081 -74.23908 3868 ft 180 kts 245°
2026-05-08 02:51 40.77529 -74.25336 4274 ft 169 kts 244°
2026-05-08 02:51 40.77000 -74.26680 4617 ft 162 kts 244°
2026-05-08 02:51 40.76490 -74.27977 4932 ft 157 kts 244°
2026-05-08 02:52 40.75995 -74.29247 5249 ft 154 kts 244°
2026-05-08 02:52 40.75506 -74.30497 5541 ft 152 kts 243°
2026-05-08 02:52 40.75022 -74.31729 5848 ft 150 kts 244°
2026-05-08 02:52 40.74546 -74.32949 6131 ft 149 kts 244°
2026-05-08 02:53 40.74074 -74.34151 6399 ft 147 kts 244°
2026-05-08 02:53 40.73606 -74.35344 6634 ft 146 kts 244°
2026-05-08 02:53 40.73140 -74.36537 6888 ft 147 kts 244°
2026-05-08 02:53 40.72673 -74.37730 7143 ft 145 kts 244°
2026-05-08 02:54 40.72211 -74.38903 7387 ft 144 kts 245°
2026-05-08 02:54 40.71753 -74.40071 7626 ft 143 kts 245°
2026-05-08 02:54 40.71302 -74.41224 7858 ft 141 kts 245°
2026-05-08 02:54 40.70851 -74.42369 8073 ft 141 kts 246°
2026-05-08 02:55 40.70401 -74.43516 8301 ft 140 kts 246°
2026-05-08 02:55 40.69516 -74.45774 8753 ft 137 kts 246°
2026-05-08 02:55 40.69079 -74.46884 8964 ft 136 kts 246°
2026-05-08 02:56 40.68641 -74.48003 9067 ft 142 kts 246°
2026-05-08 02:56 40.68165 -74.49223 9015 ft 157 kts 246°
2026-05-08 02:56 40.67643 -74.50552 8983 ft 168 kts 246°
2026-05-08 02:56 40.67092 -74.51950 8988 ft 175 kts 246°
2026-05-08 02:57 40.66532 -74.53371 8990 ft 179 kts 246°
2026-05-08 02:57 40.65960 -74.54825 8988 ft 178 kts 246°
2026-05-08 02:57 40.65386 -74.56279 8988 ft 180 kts 245°
2026-05-08 02:57 40.64808 -74.57745 8989 ft 180 kts 246°
2026-05-08 02:58 40.64230 -74.59209 8987 ft 180 kts 245°
2026-05-08 02:58 40.63651 -74.60671 8988 ft 180 kts 245°
2026-05-08 02:58 40.63074 -74.62135 8986 ft 180 kts 246°
2026-05-08 02:58 40.62497 -74.63598 8986 ft 180 kts 245°
2026-05-08 02:59 40.61919 -74.65056 8987 ft 179 kts 246°
2026-05-08 02:59 40.61345 -74.66511 8989 ft 179 kts 246°
2026-05-08 02:59 40.60770 -74.67967 8989 ft 179 kts 245°
2026-05-08 02:59 40.60194 -74.69421 8985 ft 179 kts 245°
2026-05-08 03:00 40.59622 -74.70858 9075 ft 173 kts 245°
2026-05-08 03:00 40.59082 -74.72212 9307 ft 160 kts 246°
2026-05-08 03:00 40.58584 -74.73462 9556 ft 149 kts 246°
2026-05-08 03:00 40.58252 -74.74697 9781 ft 139 kts 266°
2026-05-08 03:01 40.58156 -74.75931 9926 ft 133 kts 267°
2026-05-08 03:01 40.58070 -74.77123 10049 ft 129 kts 265°
2026-05-08 03:01 40.57975 -74.78292 10164 ft 127 kts 265°
2026-05-08 03:01 40.57881 -74.79437 10295 ft 123 kts 265°
2026-05-08 03:02 40.57795 -74.80508 10485 ft 114 kts 264°
2026-05-08 03:02 40.57713 -74.81514 10633 ft 108 kts 264°
2026-05-08 03:02 40.57634 -74.82475 10753 ft 104 kts 264°
2026-05-08 03:02 40.57585 -74.83085 10821 ft 101 kts 264°
2026-05-08 03:03 40.57511 -74.83995 10909 ft 99 kts 264°
2026-05-08 03:03 40.57437 -74.84894 10999 ft 98 kts 264°
2026-05-08 03:03 40.57364 -74.85805 11027 ft 105 kts 264°
2026-05-08 03:03 40.57282 -74.86809 10996 ft 116 kts 264°
2026-05-08 03:04 40.57194 -74.87901 10986 ft 124 kts 264°
2026-05-08 03:04 40.57108 -74.88981 10957 ft 111 kts 264°
2026-05-08 03:04 40.57025 -74.89985 10971 ft 110 kts 264°
2026-05-08 03:04 40.56945 -74.90982 10984 ft 110 kts 264°
2026-05-08 03:05 40.56862 -74.91988 10989 ft 112 kts 264°
2026-05-08 03:05 40.56778 -74.93009 10982 ft 113 kts 264°
2026-05-08 03:05 40.56696 -74.94027 10985 ft 114 kts 264°
2026-05-08 03:05 40.56610 -74.95076 10983 ft 117 kts 264°
2026-05-08 03:06 40.56522 -74.96152 10982 ft 120 kts 264°
2026-05-08 03:06 40.56431 -74.97255 10980 ft 123 kts 264°
2026-05-08 03:06 40.56338 -74.98382 10980 ft 125 kts 264°
2026-05-08 03:06 40.56245 -74.99524 10979 ft 126 kts 263°
2026-05-08 03:07 40.56149 -75.00674 10984 ft 127 kts 263°
2026-05-08 03:07 40.56052 -75.01831 10982 ft 128 kts 264°
2026-05-08 03:07 40.55956 -75.02992 10982 ft 128 kts 264°
2026-05-08 03:07 40.55861 -75.04160 10981 ft 129 kts 264°
2026-05-08 03:08 40.55764 -75.05333 10987 ft 129 kts 264°
2026-05-08 03:08 40.55665 -75.06519 10989 ft 131 kts 264°
2026-05-08 03:08 40.55563 -75.07720 10986 ft 133 kts 264°
2026-05-08 03:08 40.55464 -75.08937 10987 ft 135 kts 264°
2026-05-08 03:09 40.55363 -75.10167 10990 ft 136 kts 264°
2026-05-08 03:09 40.55257 -75.11407 10995 ft 137 kts 264°
2026-05-08 03:09 40.55189 -75.12234 10991 ft 138 kts 264°
2026-05-08 03:09 40.55085 -75.13492 10984 ft 139 kts 264°
2026-05-08 03:10 40.54983 -75.14728 10815 ft 137 kts 264°
2026-05-08 03:10 40.54872 -75.16060 10338 ft 156 kts 265°
2026-05-08 03:10 40.54747 -75.17542 9856 ft 170 kts 265°
2026-05-08 03:10 40.54677 -75.18721 9459 ft 178 kts 273°